1484071201.22,38465,6.13,72376.0,-19.67,-48.91,-50.03,0,*67
1484071202.49,38466,6.13,72374.5,-19.69,-49.25,-50.53,0,*61
1484071203.78,38467,6.13,72376.0,-19.69,-49.39,-50.39,0,*61
1484071205.05,38468,6.13,72372.8,-19.69,-50.25,-50.75,0,*63
1484071206.32,38469,6.13,72376.5,-19.69,-50.61,-51.05,0,*64
1484071207.55,38470,6.13,72376.8,-19.67,-50.75,-50.97,0,*6D
1484071208.8,38471,6.13,72378.5,-19.69,-50.75,-51.05,0,*68
1484071210.08,38472,6.13,72378.0,-19.69,-50.61,-50.97,0,*64
1484071211.36,38473,6.13,72378.0,-19.69,-50.61,-51.19,0,*62
1484071212.64,38474,6.13,72382.0,-19.69,-50.75,-51.25,0,*6F
1484071213.89,38475,6.13,72380.5,-19.69,-50.97,-51.41,0,*60
1484071215.1,38476,6.13,72384.8,-19.67,-50.47,-50.89,0,*65
1484071216.38,38477,6.13,72384.3,-19.69,-50.53,-50.97,0,*60
1484071217.68,38478,6.13,72382.8,-19.69,-50.83,-51.25,0,*6A
1484071218.96,38479,6.13,72386.3,-19.69,-50.61,-51.05,0,*65
1484071220.19,38480,6.13,72386.0,-19.67,-50.67,-50.89,0,*6E
1484071221.44,38481,6.13,72392.5,-19.67,-50.97,-51.33,0,*60
1484071222.69,38482,6.13,72398.0,-19.67,-50.75,-51.33,0,*6F
1484071223.92,38483,6.13,72396.8,-19.67,-50.67,-51.11,0,*6D
1484071225.17,38484,6.13,72394.5,-19.67,-50.53,-50.89,0,*6D
1484071226.4,38485,6.13,72394.3,-19.67,-50.67,-51.19,0,*63
1484071227.65,38486,6.13,72396.3,-19.67,-50.97,-51.33,0,*67
1484071228.88,38487,6.13,72402.3,-19.67,-50.67,-51.11,0,*69
1484071230.13,38488,6.13,72396.5,-19.67,-51.05,-51.25,0,*64
1484071231.35,38489,6.13,72400.0,-19.67,-50.97,-51.69,0,*67
1484071232.6,38490,6.13,72400.3,-19.69,-51.05,-51.69,0,*6B
1484071233.85,38491,6.13,72402.8,-19.67,-51.19,-51.55,0,*66
1484071235.11,38492,6.13,72402.3,-19.67,-51.19,-51.55,0,*65
1484071236.35,38493,6.13,72402.0,-19.67,-51.11,-51.55,0,*6C
1484071237.59,38494,6.13,72402.8,-19.67,-50.67,-51.11,0,*6B
1484071238.83,38495,6.13,72402.8,-19.69,-51.05,-51.41,0,*64
1484071240.06,38496,6.13,72404.5,-19.67,-50.75,-51.19,0,*62
1484071241.31,38497,6.13,72400.8,-19.67,-50.89,-51.33,0,*68
1484071242.55,38498,6.13,72404.3,-19.67,-50.53,-50.89,0,*60
1484071243.78,38499,6.13,72404.3,-19.67,-50.75,-51.19,0,*6D
1484071245.02,38500,6.13,72406.8,-19.69,-51.05,-51.41,0,*69
1484071246.27,38501,6.13,72402.8,-19.65,-50.97,-51.19,0,*63
1484071247.52,38502,6.13,72404.8,-19.65,-50.89,-50.97,0,*68
1484071248.8,38503,6.13,72406.5,-19.65,-50.53,-51.11,0,*61
1484071250.05,38504,6.13,72406.0,-19.65,-50.97,-51.19,0,*66
1484071251.33,38505,6.13,72406.8,-19.65,-50.97,-51.33,0,*6F
1484071252.57,38506,6.13,72400.5,-19.65,-50.97,-51.41,0,*69
1484071253.83,38507,6.13,72404.0,-19.65,-50.75,-50.97,0,*6E
1484071255.09,38508,6.13,72402.0,-19.65,-51.11,-51.41,0,*68
1484071256.34,38509,6.13,72400.0,-19.63,-51.11,-51.33,0,*6A
1484071257.56,38510,6.13,72398.3,-19.63,-50.89,-51.11,0,*62
1484071258.81,38511,6.13,72398.8,-19.65,-50.97,-51.41,0,*6F
1484071260.06,38512,6.13,72398.0,-19.63,-51.11,-51.55,0,*60
1484071261.31,38513,6.13,72402.8,-19.65,-50.89,-51.11,0,*67
1484071262.56,38514,6.13,72392.0,-19.65,-50.97,-51.41,0,*6A
1484071263.81,38515,6.13,72404.8,-19.63,-51.19,-51.63,0,*6A
1484071265.06,38516,6.13,72406.8,-19.63,-51.11,-51.33,0,*64
1484071266.32,38517,6.13,72410.3,-19.65,-51.11,-51.41,0,*66
1484071267.6,38518,6.13,72410.8,-19.65,-51.11,-51.63,0,*69
1484071268.82,38519,6.13,72406.5,-19.63,-50.89,-51.19,0,*63
1484071270.07,38520,6.13,72402.0,-19.63,-51.19,-51.63,0,*6C
1484071271.33,38521,6.13,72400.3,-19.63,-51.11,-51.33,0,*60
1484071272.54,38522,6.13,72398.3,-19.63,-50.97,-51.41,0,*69
1484071273.79,38523,6.13,72394.5,-19.63,-50.89,-51.33,0,*62
1484071275.04,38524,6.13,72400.8,-19.63,-51.11,-51.63,0,*60
1484071276.34,38525,6.13,72408.0,-19.65,-51.33,-51.63,0,*67
1484071277.57,38526,6.13,72398.5,-19.63,-51.11,-51.41,0,*62
1484071278.82,38527,6.13,72406.0,-19.63,-51.19,-51.55,0,*6E
1484071280.05,38528,6.13,72404.8,-19.63,-51.19,-51.41,0,*64
1484071281.3,38529,6.13,72410.3,-19.63,-51.19,-51.63,0,*65
1484071282.57,38530,6.13,72412.3,-19.59,-51.33,-51.55,0,*69
1484071283.85,38531,6.13,72414.3,-19.65,-51.41,-51.63,0,*67
1484071285.1,38532,6.13,72408.0,-19.65,-51.41,-51.77,0,*61
1484071286.38,38533,6.13,72400.0,-19.65,-51.55,-51.77,0,*65
1484071287.63,38534,6.13,72402.8,-19.65,-51.41,-51.85,0,*6A
1484071288.87,38535,6.13,72394.8,-19.63,-51.33,-51.77,0,*65
1484071290.16,38536,6.13,72394.0,-19.65,-51.63,-51.85,0,*68
1484071291.44,38537,6.13,72392.3,-19.63,-51.63,-51.91,0,*6A
1484071292.72,38538,6.13,72394.3,-19.65,-51.63,-51.85,0,*66
1484071294.04,38539,6.13,72394.3,-19.65,-51.63,-51.91,0,*62
1484071295.34,38540,6.13,72388.5,-19.65,-51.55,-51.91,0,*69
1484071296.59,38541,6.13,72392.5,-19.65,-51.41,-51.77,0,*65
1484071297.87,38542,6.13,72388.8,-19.65,-51.55,-51.77,0,*63
1484071299.15,38543,6.13,72386.8,-19.65,-51.33,-51.77,0,*62
1484071300.42,38544,6.13,72388.8,-19.65,-51.55,-51.77,0,*65
1484071301.67,38545,6.13,72384.8,-19.65,-51.41,-51.77,0,*61
1484071302.93,38546,6.13,72382.0,-19.65,-51.41,-51.77,0,*62
1484071304.23,38547,6.13,72382.0,-19.65,-51.33,-51.63,0,*63
1484071305.51,38548,6.13,72382.5,-19.65,-51.19,-51.63,0,*64
1484071306.8,38549,6.13,72380.8,-19.65,-51.41,-51.63,0,*68
1484071308.08,38550,6.13,72386.5,-19.65,-51.41,-51.63,0,*60
1484071309.33,38551,6.13,72390.3,-19.67,-51.19,-51.63,0,*6E
1484071310.6,38552,6.13,72400.8,-19.69,-51.41,-51.63,0,*6E
1484071311.83,38553,6.13,72400.3,-19.67,-51.11,-51.19,0,*69
1484071313.05,38554,6.13,72400.5,-19.67,-50.97,-50.97,0,*66
1484071314.27,38555,6.13,72390.3,-19.67,-50.89,-50.97,0,*68
1484071315.52,38556,6.13,72380.0,-19.67,-50.53,-50.75,0,*60
1484071316.76,38557,6.13,72362.8,-19.67,-50.53,-50.75,0,*61
1484071317.99,38558,6.13,72348.5,-19.67,-50.67,-50.89,0,*6A
1484071319.26,38559,6.13,72350.0,-19.65,-49.97,-49.97,0,*69
1484071320.56,38560,6.13,72330.5,-19.65,-49.61,-49.39,0,*6E
1484071321.83,38561,6.13,72336.5,-19.65,-48.27,-48.97,0,*69
1484071323.1,38562,6.13,72332.8,-19.63,-49.61,-50.03,0,*6B
1484071324.38,38563,6.13,72332.0,-19.63,-49.39,-50.03,0,*67
1484071325.63,38564,6.13,72346.3,-19.65,-48.63,-49.75,0,*61
1484071326.85,38565,6.13,72350.3,-19.63,-49.33,-49.75,0,*62
1484071328.12,38566,6.13,72360.5,-19.63,-49.53,-50.03,0,*6E
1484071329.4,38567,6.13,72388.5,-19.63,-49.39,-50.17,0,*66
1484071330.68,38568,6.13,72392.0,-19.65,-47.57,-48.69,0,*69
1484071331.91,38569,6.13,72400.0,-19.63,-48.07,-49.33,0,*6A
1484071333.19,38570,6.13,72398.8,-19.65,-47.85,-49.53,0,*67
1484071334.5,38571,6.13,72400.5,-19.65,-47.79,-49.11,0,*63
1484071335.74,38572,6.13,72396.8,-19.63,-48.97,-50.03,0,*62
1484071336.99,38573,6.13,72390.3,-19.63,-50.53,-50.67,0,*60
1484071338.3,38574,6.13,72390.8,-19.65,-50.33,-50.53,0,*60
1484071339.58,38575,6.13,72392.0,-19.65,-50.03,-50.47,0,*67
1484071340.84,38576,6.13,72390.8,-19.63,-49.75,-50.33,0,*68
1484071342.08,38577,6.13,72384.8,-19.63,-50.53,-50.89,0,*64
1484071343.33,38578,6.13,72390.8,-19.63,-50.75,-51.33,0,*6F
1484071344.59,38579,6.13,72380.8,-19.63,-50.75,-51.33,0,*6E
1484071345.84,38580,6.13,72384.8,-19.65,-50.97,-51.11,0,*62
1484071347.1,38581,6.13,72386.5,-19.65,-50.75,-50.97,0,*60
1484071348.32,38582,6.13,72384.3,-19.63,-50.89,-51.19,0,*61
1484071349.54,38583,6.13,72384.3,-19.63,-50.89,-51.11,0,*68
1484071350.76,38584,6.13,72386.8,-19.63,-50.67,-50.89,0,*6F
1484071351.98,38585,6.13,72386.0,-19.63,-50.75,-50.89,0,*6D
1484071353.21,38586,6.13,72384.3,-19.63,-50.97,-51.19,0,*6A
1484071354.42,38587,6.13,72380.0,-19.63,-50.89,-50.97,0,*63
1484071355.65,38588,6.13,72386.0,-19.63,-50.75,-50.97,0,*6F
1484071356.87,38589,6.13,72392.3,-19.59,-50.89,-51.11,0,*6B
1484071358.15,38590,6.13,72378.3,-19.57,-51.11,-51.33,0,*6D
1484071359.43,38591,6.13,72386.5,-19.59,-51.25,-51.55,0,*65
1484071360.67,38592,6.13,72386.5,-19.59,-51.05,-51.33,0,*64
1484071361.93,38593,6.13,72390.8,-19.59,-51.05,-51.25,0,*62
1484071363.15,38594,6.13,72388.0,-19.59,-50.89,-51.11,0,*67
1484071364.4,38595,6.13,72380.3,-19.59,-50.89,-51.25,0,*61
1484071365.62,38596,6.13,72390.3,-19.59,-51.05,-51.11,0,*60
1484071366.9,38597,6.13,72390.5,-19.57,-51.11,-51.47,0,*69
1484071368.18,38598,6.13,72386.5,-19.57,-51.11,-51.33,0,*65
1484071369.43,38599,6.13,72396.3,-19.59,-51.05,-51.33,0,*6F
1484071370.68,38600,6.13,72398.3,-19.59,-51.05,-51.47,0,*6F
1484071371.94,38601,6.13,72402.8,-19.59,-51.33,-51.55,0,*68
1484071373.22,38602,6.13,72402.3,-19.57,-51.05,-51.33,0,*60
1484071374.47,38603,6.13,72402.8,-19.59,-51.05,-51.25,0,*68
1484071375.73,38604,6.13,72400.0,-19.57,-50.67,-51.05,0,*66
1484071376.98,38605,6.13,72400.0,-19.59,-50.83,-51.05,0,*63
1484071378.25,38606,6.13,72406.0,-19.57,-50.47,-50.83,0,*69
1484071379.5,38607,6.13,72400.0,-19.57,-50.89,-51.11,0,*60
1484071380.76,38608,6.13,72394.3,-19.57,-50.67,-51.11,0,*6F
1484071381.99,38609,6.13,72394.5,-19.59,-50.67,-51.11,0,*60
1484071383.26,38610,6.13,72388.0,-19.57,-50.89,-51.33,0,*66
1484071384.51,38611,6.13,72386.3,-19.55,-50.97,-51.47,0,*69
1484071385.79,38612,6.13,72384.8,-19.55,-51.25,-51.47,0,*62
1484071387.05,38613,6.13,72374.0,-19.55,-51.47,-51.69,0,*6B
1484071388.33,38614,6.13,72368.0,-19.57,-51.47,-51.77,0,*61
1484071389.61,38615,6.13,72368.0,-19.57,-51.47,-51.85,0,*6D
1484071390.88,38616,6.13,72370.0,-19.57,-51.55,-51.77,0,*60
1484071392.14,38617,6.13,72374.3,-19.57,-51.69,-51.77,0,*6E
1484071393.37,38618,6.13,72370.8,-19.59,-51.69,-51.77,0,*6F
1484071394.67,38619,6.13,72378.0,-19.57,-51.55,-51.99,0,*6F
1484071395.92,38620,6.13,72378.5,-19.59,-51.69,-51.99,0,*64
1484071397.2,38621,6.13,72378.3,-19.57,-51.69,-51.99,0,*6B
1484071398.46,38622,6.13,72374.5,-19.59,-51.25,-51.69,0,*61
1484071399.74,38623,6.13,72370.5,-19.57,-51.47,-51.77,0,*65
1484071400.98,38624,6.13,72368.0,-19.59,-51.55,-51.77,0,*6F
1484071402.21,38625,6.13,72372.8,-19.59,-51.69,-51.85,0,*6C
1484071403.47,38626,6.13,72384.5,-19.57,-51.69,-51.77,0,*6C
1484071404.69,38627,6.13,72390.0,-19.59,-51.69,-51.85,0,*6E
1484071405.92,38628,6.13,72388.8,-19.59,-51.69,-51.77,0,*6C
1484071407.15,38629,6.13,72388.0,-19.59,-51.69,-52.07,0,*69
1484071408.37,38630,6.13,72386.5,-19.63,-51.85,-52.07,0,*6A
1484071409.64,38631,6.13,72390.3,-19.63,-51.91,-52.13,0,*6B
1484071410.95,38632,6.13,72390.0,-19.65,-51.63,-51.91,0,*6A
1484071412.2,38633,6.13,72382.3,-19.63,-51.33,-51.77,0,*60
1484071413.45,38634,6.13,72382.3,-19.65,-51.41,-51.77,0,*64
1484071414.69,38635,6.13,72384.0,-19.63,-51.33,-51.77,0,*66
1484071415.91,38636,6.13,72380.3,-19.63,-51.41,-51.85,0,*6D
1484071417.2,38637,6.13,72376.5,-19.65,-51.19,-51.63,0,*6F
1484071418.45,38638,6.13,72372.5,-19.63,-51.41,-51.63,0,*6B
1484071419.75,38639,6.13,72376.3,-19.65,-51.33,-51.63,0,*69
1484071421.0,38640,6.13,72372.3,-19.63,-51.11,-51.55,0,*64
1484071422.22,38641,6.13,72368.8,-19.63,-51.11,-51.41,0,*60
1484071423.44,38642,6.13,72376.8,-19.63,-50.97,-51.19,0,*61
1484071424.66,38643,6.13,72370.8,-19.63,-50.97,-51.19,0,*60
1484071425.88,38644,6.13,72376.0,-19.63,-50.89,-51.11,0,*60
1484071427.14,38645,6.13,72382.3,-19.63,-51.11,-51.33,0,*61
1484071428.39,38646,6.13,72382.0,-19.63,-51.11,-51.33,0,*62
1484071429.64,38647,6.13,72378.8,-19.63,-51.11,-51.33,0,*63
1484071430.89,38648,6.13,72384.8,-19.63,-51.11,-51.33,0,*6C
1484071432.17,38649,6.13,72386.5,-19.57,-51.05,-51.33,0,*6F
1484071433.42,38650,6.13,72388.8,-19.59,-51.05,-51.47,0,*6A
1484071434.67,38651,6.13,72390.3,-19.59,-51.05,-51.33,0,*68
1484071435.92,38652,6.13,72388.0,-19.59,-51.05,-51.33,0,*6B
1484071437.2,38653,6.13,72388.3,-19.57,-51.11,-51.33,0,*61
1484071438.45,38654,6.13,72388.8,-19.59,-51.11,-51.47,0,*6B
1484071439.7,38655,6.13,72390.8,-19.59,-51.05,-51.47,0,*6F
1484071440.94,38656,6.13,72388.8,-19.59,-51.05,-51.47,0,*6C
1484071442.22,38657,6.13,72392.3,-19.59,-51.47,-51.55,0,*68
1484071443.52,38658,6.13,72398.0,-19.57,-51.25,-51.55,0,*6D
1484071444.82,38659,6.13,72396.3,-19.57,-51.33,-51.55,0,*6B
1484071446.09,38660,6.13,72392.3,-19.59,-51.25,-51.55,0,*68
1484071447.34,38661,6.13,72388.8,-19.59,-51.11,-51.55,0,*6E
1484071448.61,38662,6.06,72388.5,-19.63,-51.33,-51.55,0,*64
1484071449.89,38663,6.13,72390.0,-19.57,-51.11,-51.25,0,*65
1484071451.17,38664,6.13,72394.5,-19.59,-51.25,-51.55,0,*6C
1484071452.44,38665,6.13,72396.5,-19.59,-51.25,-51.55,0,*6D
1484071453.69,38666,6.13,72394.3,-19.59,-51.05,-51.47,0,*6F
1484071454.97,38667,6.13,72390.8,-19.57,-51.11,-51.55,0,*66
1484071456.24,38668,6.13,72386.8,-19.57,-51.33,-51.69,0,*66
1484071457.49,38669,6.13,72394.5,-19.59,-51.47,-51.77,0,*65
1484071458.72,38670,6.13,72392.3,-19.59,-51.69,-51.85,0,*6C
1484071459.98,38671,6.13,72388.0,-19.59,-51.47,-51.69,0,*63
1484071461.23,38672,6.13,72394.0,-19.59,-51.25,-51.69,0,*64
1484071462.51,38673,6.06,72380.0,-19.59,-51.25,-51.55,0,*6A
1484071463.76,38674,6.13,72388.8,-19.59,-51.11,-51.55,0,*6A
1484071464.98,38675,6.13,72392.0,-19.63,-51.41,-51.77,0,*67
1484071466.23,38676,6.13,72388.5,-19.63,-51.63,-52.07,0,*60
1484071467.48,38677,6.06,72386.5,-19.59,-51.55,-51.85,0,*64
1484071468.75,38678,6.13,72394.0,-19.59,-51.55,-51.99,0,*66
1484071469.98,38679,6.13,72390.5,-19.59,-51.69,-51.85,0,*65
1484071471.23,38680,6.13,72398.3,-19.59,-51.69,-51.99,0,*6E
1484071472.48,38681,6.06,72394.0,-19.59,-51.47,-51.77,0,*63
1484071473.73,38682,6.06,72392.0,-19.63,-51.33,-51.85,0,*67
1484071475.01,38683,6.06,72390.3,-19.63,-51.63,-51.91,0,*66
1484071476.27,38684,6.06,72392.3,-19.63,-51.77,-51.91,0,*64
1484071477.51,38685,6.13,72396.8,-19.63,-51.85,-52.13,0,*61
1484071478.73,38686,6.13,72400.5,-19.63,-51.77,-52.07,0,*6A
1484071480.01,38687,6.13,72392.5,-19.65,-51.55,-51.77,0,*69
1484071481.23,38688,6.13,72390.8,-19.63,-51.41,-51.85,0,*68
1484071482.47,38689,6.13,72404.5,-19.63,-51.55,-51.85,0,*6C
1484071483.75,38690,6.13,72402.8,-19.65,-51.63,-52.07,0,*6E
1484071485.01,38691,6.13,72396.5,-19.63,-51.63,-51.85,0,*60
1484071486.32,38692,6.13,72404.5,-19.65,-51.63,-51.91,0,*60
1484071487.61,38693,6.13,72394.0,-19.65,-51.77,-51.91,0,*64
1484071488.88,38694,6.13,72392.5,-19.65,-51.85,-52.13,0,*67
1484071490.13,38695,6.06,72390.0,-19.65,-51.77,-52.07,0,*6E
1484071491.41,38696,6.13,72394.0,-19.65,-51.63,-52.07,0,*68
1484071492.69,38697,6.13,72398.8,-19.65,-51.55,-51.85,0,*65
1484071493.99,38698,6.13,72392.5,-19.65,-51.33,-51.63,0,*62
1484071495.27,38699,6.13,72388.5,-19.65,-51.55,-51.77,0,*66
1484071496.52,38700,6.06,72392.8,-19.65,-51.41,-51.77,0,*62
1484071497.75,38701,6.13,72400.8,-19.67,-51.77,-51.85,0,*69
1484071499.0,38702,6.06,72396.0,-19.67,-51.77,-51.91,0,*6F
1484071500.23,38703,6.06,72392.0,-19.67,-51.85,-52.07,0,*6F
1484071501.5,38704,6.06,72390.0,-19.67,-51.55,-51.91,0,*69
1484071502.75,38705,6.06,72384.8,-19.67,-51.55,-51.85,0,*6D
1484071504.06,38706,6.06,72384.5,-19.69,-51.63,-51.91,0,*60
1484071505.31,38707,6.13,72386.5,-19.67,-51.63,-51.85,0,*6A
1484071506.59,38708,6.13,72382.3,-19.67,-51.63,-51.91,0,*60
1484071507.87,38709,6.06,72380.0,-19.69,-51.47,-51.85,0,*6C
1484071509.15,38710,6.13,72384.0,-19.69,-51.47,-51.77,0,*69
1484071510.4,38711,6.13,72394.5,-19.65,-51.41,-51.77,0,*62
1484071511.7,38712,6.13,72396.0,-19.69,-51.63,-51.91,0,*65
1484071512.95,38713,6.06,72390.3,-19.67,-51.55,-51.85,0,*6A
1484071514.26,38714,6.06,72392.5,-19.69,-51.63,-51.91,0,*63
1484071515.51,38715,6.06,72390.3,-19.67,-51.55,-51.77,0,*61
1484071516.81,38716,6.06,72392.5,-19.69,-51.63,-51.91,0,*61
1484071518.1,38717,6.06,72388.0,-19.69,-51.69,-51.91,0,*6A
1484071519.38,38718,6.06,72386.8,-19.69,-51.69,-51.91,0,*65
1484071520.62,38719,6.06,72394.3,-19.67,-51.55,-51.85,0,*60
1484071521.87,38720,6.06,72394.3,-19.67,-51.55,-51.85,0,*6A
1484071523.15,38721,6.06,72392.8,-19.69,-51.69,-51.99,0,*67
1484071524.43,38722,6.13,72390.8,-19.69,-51.47,-51.85,0,*65
1484071525.68,38723,6.13,72382.5,-19.67,-51.11,-51.63,0,*61
1484071526.93,38724,6.06,72370.0,-19.67,-51.19,-51.63,0,*6E
1484071528.18,38725,6.06,72372.0,-19.67,-51.41,-51.63,0,*62
1484071529.49,38726,6.06,72376.5,-19.69,-51.63,-51.91,0,*62
1484071530.74,38727,6.06,72378.3,-19.67,-51.63,-51.85,0,*68
1484071532.02,38728,6.06,72376.8,-19.69,-51.63,-51.85,0,*69
1484071533.3,38729,6.06,72376.5,-19.69,-51.69,-51.99,0,*6F
1484071534.61,38730,6.06,72380.0,-19.69,-51.63,-51.91,0,*65
1484071535.86,38731,6.06,72376.5,-19.69,-51.19,-51.69,0,*6E
1484071537.11,38732,6.06,72378.8,-19.69,-51.05,-51.69,0,*60
1484071538.38,38733,6.06,72386.0,-19.69,-51.05,-51.63,0,*6B
1484071539.66,38734,6.06,72388.3,-19.69,-51.05,-51.63,0,*6C
1484071540.91,38735,6.06,72392.8,-19.69,-51.19,-51.69,0,*6A
1484071542.19,38736,6.06,72390.5,-19.69,-51.47,-51.85,0,*60
1484071543.47,38737,6.06,72392.8,-19.69,-51.69,-51.99,0,*60
1484071544.76,38738,6.06,72392.5,-19.69,-51.63,-52.13,0,*64
1484071546.07,38739,6.06,72390.5,-19.69,-51.47,-51.91,0,*6A
1484071547.37,38740,6.06,72392.3,-19.69,-51.47,-51.91,0,*64
1484071548.66,38741,6.06,72394.5,-19.71,-51.47,-51.91,0,*6C
1484071549.88,38742,6.13,72392.5,-19.71,-51.41,-51.85,0,*6C
1484071551.17,38743,6.13,72390.0,-19.73,-51.55,-51.99,0,*67
1484071552.42,38744,6.06,72388.3,-19.71,-51.63,-51.85,0,*6A
1484071553.67,38745,6.06,72386.0,-19.71,-51.63,-51.85,0,*6B
1484071554.96,38746,6.06,72390.3,-19.73,-51.55,-51.99,0,*62
1484071556.22,38747,6.06,72390.5,-19.73,-51.77,-51.99,0,*63
1484071557.48,38748,6.06,72390.0,-19.71,-51.69,-51.91,0,*69
1484071558.77,38749,6.06,72384.0,-19.71,-51.63,-51.91,0,*62
1484071560.05,38750,6.06,72382.0,-19.71,-51.63,-51.91,0,*6A
1484071561.29,38751,6.13,72386.8,-19.73,-51.77,-52.07,0,*60
1484071562.57,38752,6.06,72390.0,-19.73,-51.91,-52.21,0,*6F
1484071563.81,38753,6.06,72384.8,-19.73,-51.77,-52.07,0,*62
1484071565.11,38754,6.06,72380.0,-19.73,-51.47,-51.91,0,*6A
1484071566.37,38755,6.06,72382.0,-19.73,-51.33,-51.77,0,*60
1484071567.64,38756,6.06,72378.8,-19.73,-51.69,-51.91,0,*64
1484071568.9,38757,6.06,72382.5,-19.73,-51.33,-51.77,0,*62
1484071570.19,38758,6.06,72376.5,-19.73,-51.25,-51.55,0,*6A
1484071571.44,38759,6.06,72376.5,-19.71,-50.97,-51.25,0,*66
1484071572.68,38760,6.06,72376.3,-19.73,-50.67,-50.89,0,*66
1484071573.93,38761,6.06,72382.8,-19.71,-50.33,-50.39,0,*6F
1484071575.21,38762,6.06,72380.0,-19.73,-50.03,-50.89,0,*66
1484071576.44,38763,6.06,72368.3,-19.73,-50.89,-51.05,0,*60
1484071577.69,38764,6.06,72372.8,-19.71,-50.97,-51.25,0,*68
1484071578.95,38765,6.06,72372.0,-19.73,-51.05,-51.33,0,*66
1484071580.21,38766,6.13,72374.5,-19.73,-51.05,-51.55,0,*65
1484071581.47,38767,6.13,72374.0,-19.73,-51.11,-51.55,0,*61
1484071582.71,38768,6.06,72372.0,-19.73,-51.11,-51.69,0,*61
1484071583.98,38769,6.06,72374.5,-19.73,-50.61,-51.11,0,*69
1484071585.24,38770,6.13,72378.8,-19.71,-50.33,-50.97,0,*6B
1484071586.52,38771,6.06,72378.8,-19.71,-50.11,-50.61,0,*63
1484071587.79,38772,6.13,72384.0,-19.73,-50.33,-50.89,0,*64
1484071589.01,38773,6.06,72380.3,-19.71,-50.47,-51.05,0,*61
1484071590.27,38774,6.06,72376.5,-19.73,-50.47,-50.83,0,*6B
1484071591.51,38775,6.06,72378.3,-19.71,-50.53,-50.75,0,*64
1484071592.78,38776,6.06,72380.3,-19.73,-50.67,-50.83,0,*6B
1484071594.02,38777,6.06,72380.3,-19.73,-50.67,-51.05,0,*65
1484071595.28,38778,6.06,72380.8,-19.71,-50.83,-51.19,0,*6F
1484071596.54,38779,6.06,72378.0,-19.73,-51.05,-51.25,0,*6C
1484071597.79,38780,6.06,72376.8,-19.71,-50.83,-51.05,0,*65
1484071599.06,38781,6.06,72378.3,-19.73,-51.05,-51.25,0,*6B
1484071600.32,38782,6.06,72376.0,-19.73,-51.11,-51.55,0,*6A
1484071601.58,38783,6.06,72374.5,-19.71,-51.25,-51.69,0,*61
1484071602.85,38784,6.06,72384.0,-19.73,-51.25,-51.69,0,*64
1484071604.09,38785,6.06,72390.5,-19.71,-50.53,-51.05,0,*6D
1484071605.35,38786,6.06,72390.3,-19.71,-51.25,-51.69,0,*64
1484071606.64,38787,6.06,72384.8,-19.73,-51.33,-51.91,0,*67
1484071607.9,38788,6.06,72384.8,-19.73,-51.33,-51.69,0,*6F
1484071609.16,38789,6.13,72384.0,-19.73,-51.33,-51.77,0,*61
1484071610.4,38790,6.06,72386.8,-19.77,-51.41,-51.85,0,*65
1484071611.66,38791,6.06,72378.0,-19.73,-51.47,-51.77,0,*6B
1484071612.93,38792,6.06,72376.3,-19.73,-51.19,-51.47,0,*60
1484071614.2,38793,6.06,72372.0,-19.73,-51.11,-51.47,0,*69
1484071615.46,38794,6.06,72374.8,-19.73,-51.11,-51.47,0,*6E
1484071616.73,38795,6.06,72374.3,-19.73,-51.33,-51.69,0,*63
1484071618.01,38796,6.06,72368.8,-19.73,-51.33,-51.55,0,*6F
1484071619.28,38797,6.13,72378.8,-19.73,-51.25,-51.69,0,*66
1484071620.53,38798,6.06,72382.3,-19.71,-51.25,-51.69,0,*6B
1484071621.79,38799,6.06,72388.5,-19.73,-51.33,-51.77,0,*60
1484071623.02,38800,6.06,72394.3,-19.71,-51.41,-51.69,0,*67
1484071624.29,38801,6.13,72396.0,-19.73,-51.25,-51.69,0,*66
1484071625.55,38802,6.06,72390.0,-19.73,-51.33,-51.77,0,*6D
1484071626.8,38803,6.06,72384.3,-19.77,-51.33,-51.77,0,*68
1484071628.07,38804,6.06,72384.5,-19.77,-51.63,-51.85,0,*67
1484071629.37,38805,6.06,72384.5,-19.77,-51.63,-51.99,0,*6B
1484071630.66,38806,6.06,72386.8,-19.77,-51.63,-51.99,0,*68
1484071631.92,38807,6.06,72388.8,-19.77,-51.55,-51.85,0,*61
1484071633.15,38808,6.06,72390.8,-19.79,-51.33,-51.85,0,*60
1484071634.37,38809,6.06,72390.3,-19.79,-51.41,-51.85,0,*64
1484071635.63,38810,6.06,72388.5,-19.77,-51.63,-52.07,0,*6B
1484071636.92,38811,6.06,72388.5,-19.77,-51.55,-51.99,0,*6B
1484071638.13,38812,6.06,72390.8,-19.79,-51.41,-51.85,0,*6E
1484071639.39,38813,6.06,72396.5,-19.77,-51.33,-51.77,0,*69
1484071640.6,38814,6.13,72398.0,-19.79,-51.41,-51.85,0,*68
1484071641.87,38815,6.06,72388.8,-19.79,-51.33,-51.63,0,*64
1484071643.12,38816,6.06,72394.3,-19.79,-51.33,-51.55,0,*62
1484071644.36,38817,6.06,72394.3,-19.77,-51.41,-51.85,0,*65
1484071645.6,38818,6.06,72392.3,-19.79,-51.63,-51.85,0,*64
1484071646.81,38819,6.06,72394.0,-19.79,-51.41,-51.85,0,*65
1484071648.05,38820,6.06,72394.0,-19.79,-51.55,-51.85,0,*6A
1484071649.29,38821,6.06,72394.0,-19.79,-51.55,-51.85,0,*6B
1484071650.52,38822,6.06,72400.5,-19.79,-51.55,-51.85,0,*68
1484071651.76,38823,6.06,72400.5,-19.77,-51.85,-52.07,0,*63
1484071653.0,38824,6.06,72402.0,-19.79,-51.41,-51.99,0,*66
1484071654.24,38825,6.06,72402.8,-19.79,-51.63,-51.85,0,*6A
1484071655.48,38826,6.06,72406.3,-19.79,-51.63,-51.85,0,*69
1484071656.75,38827,6.06,72404.5,-19.79,-51.55,-51.99,0,*60
1484071657.98,38828,6.06,72390.0,-19.79,-51.55,-51.85,0,*62
1484071659.22,38829,6.06,72392.8,-19.81,-51.41,-51.77,0,*6C
1484071660.46,38830,6.06,72400.5,-19.79,-51.19,-51.55,0,*6E
1484071661.7,38831,6.06,72402.3,-19.79,-51.19,-51.63,0,*6A
1484071662.92,38832,6.06,72402.3,-19.79,-51.41,-51.85,0,*6C
1484071664.18,38833,6.06,72406.5,-19.81,-51.63,-51.77,0,*67
1484071665.47,38834,6.06,72404.0,-19.81,-51.55,-51.99,0,*65
1484071666.71,38835,6.06,72406.5,-19.81,-51.41,-51.85,0,*6C
1484071667.92,38836,6.06,72402.3,-19.83,-51.41,-51.85,0,*6D
1484071669.21,38837,6.06,72404.3,-19.81,-51.63,-51.99,0,*63
1484071670.43,38838,6.06,72406.5,-19.83,-51.69,-52.07,0,*60
1484071671.69,38839,6.06,72406.0,-19.81,-51.63,-51.85,0,*60
1484071672.95,38840,6.06,72408.0,-19.81,-51.85,-52.13,0,*6A
1484071674.21,38841,6.06,72408.0,-19.81,-51.77,-51.99,0,*67
1484071675.45,38842,6.06,72406.5,-19.83,-51.63,-52.07,0,*67
1484071676.69,38843,6.06,72400.5,-19.83,-51.63,-52.07,0,*66
1484071677.95,38844,6.06,72400.3,-19.83,-51.91,-52.21,0,*68
1484071679.18,38845,6.06,72404.3,-19.83,-51.85,-52.21,0,*6C
1484071680.45,38846,6.06,72406.0,-19.83,-51.91,-52.21,0,*6A
1484071681.71,38847,6.06,72406.5,-19.83,-51.91,-52.21,0,*6B
1484071682.94,38848,6.06,72402.8,-19.83,-51.85,-52.21,0,*61
1484071684.24,38849,6.06,72404.8,-19.85,-51.63,-51.91,0,*66
1484071685.48,38850,6.06,72402.5,-19.85,-51.69,-52.07,0,*68
1484071686.75,38851,6.06,72396.8,-19.85,-51.69,-51.91,0,*65
1484071688.02,38852,6.06,72396.3,-19.85,-51.69,-52.21,0,*6E
1484071689.28,38853,6.06,72396.0,-19.85,-51.85,-52.21,0,*6D
1484071690.56,38854,6.06,72394.8,-19.85,-51.91,-52.13,0,*6E
1484071691.85,38855,6.06,72402.8,-19.89,-51.91,-52.21,0,*62
1484071693.14,38856,6.06,72402.5,-19.85,-51.91,-52.21,0,*6D
1484071694.43,38857,6.06,72400.3,-19.85,-51.91,-52.13,0,*6D
1484071695.68,38858,6.06,72400.0,-19.89,-51.77,-52.13,0,*66
1484071696.95,38859,6.06,72394.8,-19.89,-51.77,-52.21,0,*66
1484071698.21,38860,6.06,72402.8,-19.89,-51.69,-52.13,0,*62
1484071699.48,38861,6.06,72398.3,-19.89,-51.69,-51.99,0,*62
1484071700.77,38862,6.06,72400.3,-19.89,-51.47,-51.91,0,*65
1484071702.01,38863,6.06,72404.5,-19.85,-51.41,-51.69,0,*69
1484071703.27,38864,6.06,72404.5,-19.89,-51.77,-52.13,0,*69